Location: ??????
(41.1569°N, 22.8288°E)
Time: 15:08:56
(UTC+00:00)

Daily predictions for brighter satellites

Satellite Brightness Start Highest point End
(mag) Time Altitude Azimuth Time Altitude Azimuth Time Altitude Azimuth
Cosmos 1633 Rocket 3.1 18:30:11 10° N 18:34:34 63° E 18:38:53 10° SSE
Okean O Rocket 1.7 18:32:49 10° SSE 18:37:13 89° WSW 18:41:38 10° NNW
Cosmos 2026 Rocket 4.0 18:31:14 10° S 18:37:24 74° E 18:43:30 10° N
SeaSat 1 3.7 18:33:28 10° ESE 18:37:39 29° NE 18:41:51 10° N
USA 234 3.3 18:31:49 10° NE 18:38:19 65° SE 18:44:47 10° SW
OPS 6432 4.4 18:36:24 10° NNW 18:39:28 62° NE 18:42:45 10° SE
SL-24 R/B 4.3 18:35:15 10° SSE 18:40:21 76° ENE 18:44:46 10° N
Cosmos 1066 Rocket 4.3 18:34:40 10° S 18:40:26 66° E 18:46:11 10° NNE
CARTOSAT-1 4.0 18:37:34 10° S 18:41:47 65° W 18:46:02 10° NNW
Cosmos 1766 3.4 18:40:48 10° N 18:44:29 53° E 18:48:09 10° SSE
FALCON 9 R/B 4.2 18:42:54 10° SW 18:45:42 15° S 18:50:18 10° SSE
CZ-4 R/B 3.6 18:42:48 10° SSW 18:46:02 24° W 18:49:19 10° NW
Cosmos 1470 Rocket 3.8 18:42:12 10° N 18:46:29 52° E 18:50:41 10° SSE
Cosmos 2285 Rocket 4.1 18:40:53 10° SSW 18:47:13 87° ESE 18:53:38 10° NNE
Atlas Centaur 2 3.6 18:46:02 10° SW 18:53:19 36° S 19:00:41 10° ESE
Cosmos 1666 Rocket 4.0 18:49:37 10° NNW 18:53:55 62° W 18:58:11 10° S
IRIDIUM 114 4.4 18:51:52 10° N 18:57:05 67° E 19:02:16 10° S
SL-16 R/B 3.8 18:52:59 10° N 18:57:21 22° NE 19:01:41 10° ESE
ERS-1 Rocket 3.8 18:53:15 11° SE 18:57:40 36° ENE 19:02:13 10° N
Cosmos 2082 Rocket 2.3 18:53:19 10° SSW 18:59:02 86° WNW 19:04:47 10° NNE
Cosmos 2369 3.8 18:53:35 10° NNW 18:59:19 67° ENE 19:04:36 12° SSE
Cosmos 1763 Rocket 3.7 18:56:01 10° NNW 19:01:12 56° ENE 19:05:45 13° SE
Resurs 01 Rocket 3.0 18:57:43 10° SSW 19:01:47 36° W 19:05:53 10° NNW
BREEZE-M DEB (TANK) 2.0 19:01:55 10° WSW 19:04:11 84° NNW 19:07:03 10° ENE
Cosmos 1441 Rocket 4.4 19:02:18 10° NNE 19:05:21 25° ENE 19:07:31 15° ESE
IRIDIUM 103 4.3 19:01:00 10° N 19:06:15 82° E 19:11:28 10° S
Lacrosse 5 rocket 3.5 19:04:05 10° WNW 19:07:00 18° WSW 19:09:51 10° SSW
SPOT 5 2.6 19:03:33 11° SSE 19:07:38 67° ENE 19:11:57 10° N
Centaur D-1AR AC-39 4.4 19:06:41 10° SSE 19:15:43 - ESE 19:07:30 11° SSE
Centaur D AC-29 3.8 19:05:05 10° SW 19:10:40 35° SSE 19:35:41 10° ESE
Cosmos 1933 Rocket 3.9 19:06:29 10° N 19:10:47 48° E 19:14:12 15° SSE
ATLAS 2AS CENTAUR R/B 4.5 19:08:20 10° NNW 19:13:23 21° NNE 19:18:19 10° E
Cosmos 1470 2.8 19:10:11 10° N 19:13:49 55° E 19:16:30 17° SSE
IRS-1C Rocket 4.1 19:13:04 13° SSE 19:17:49 74° ENE 19:23:04 10° N
Cosmos 1908 3.5 19:18:01 10° N 19:21:29 44° E 19:23:32 21° SE
Cosmos 1674 3.3 19:21:21 10° SSW 19:24:43 50° W 19:28:06 10° N
Cosmos 1697 Rocket 4.5 19:20:39 10° NW 19:25:12 26° WSW 19:29:45 10° SSW
Ariane Rocket 3.5 19:22:59 18° SE 19:26:31 46° ENE 19:31:22 10° N
Cosmos 468 Rocket 4.1 19:23:02 10° NNW 19:28:15 65° ENE 19:31:49 20° SSE
KORONAS-FOTON 4.2 19:26:47 10° SSW 19:30:26 60° W 19:34:08 10° N
COSMOS 2406 3.9 19:26:26 10° SW 19:32:05 59° WNW 19:37:47 10° NNE
Cosmos 1842 4.0 19:30:21 10° SSW 19:33:53 48° W 19:37:27 10° N
Meteor 1-13 Rocket 4.2 19:28:40 10° S 19:34:29 73° E 19:40:11 10° NNE
SPOT 3 Rocket 3.9 19:31:38 20° SE 19:34:59 51° ENE 19:39:58 10° N
MetOp-B 4.5 19:31:48 12° S 19:36:46 65° WSW 19:42:06 10° NNW
Cosmos 1553 Rocket 4.1 19:31:55 10° N 19:38:05 79° W 19:43:45 13° S
S3M 4.2 19:33:55 10° N 19:40:13 58° E 19:44:25 21° SSE
Cosmos 2322 Rocket 3.4 19:37:13 10° N 19:42:12 30° NE 19:45:40 17° ESE
Cosmos 1980 Rocket 3.2 19:36:56 10° NW 19:42:14 41° WSW 19:47:05 12° S
Cosmos 1655 Rocket 4.4 19:38:03 19° SSE 19:42:17 46° E 19:48:20 10° NNE
ARGOS Delta rocket 4.2 19:39:22 13° S 19:43:17 55° W 19:47:38 10° NNW
SL-27 R/B 4.5 19:48:09 11° ENE 19:48:09 11° ENE 19:48:19 10° ENE
Okean-O 4.4 19:46:05 10° SSW 19:49:50 27° W 19:53:37 10° NW
Cosmos 2278 3.8 19:45:32 10° NNW 19:51:15 71° ENE 19:54:32 26° SE
SJ 16-02 3.0 19:52:11 18° E 19:52:11 18° E 19:54:55 10° NE
Cosmos 2266 Rocket 4.0 19:46:45 14° S 19:52:16 80° E 19:58:41 10° N
Cosmos 1741 Rocket 4.4 19:51:37 25° SSE 19:54:14 44° ESE 19:59:15 10° NNE
Landsat 5 3.7 19:53:40 10° NNE 19:57:33 47° E 19:58:50 34° SSE
USA 245 3.6 19:56:51 27° SSW 19:58:16 50° W 20:02:01 10° NNW
Cosmos 540 Rocket 3.8 19:53:31 10° NNW 19:58:36 60° WSW 20:01:44 23° S
Landsat 4 3.4 19:59:02 39° S 20:00:13 83° WSW 20:03:41 10° NNW
Terra 2.1 19:59:05 23° S 20:02:00 65° W 20:06:41 10° NNW
Cosmos 1400 Rocket 2.6 20:00:07 27° S 20:02:09 90° SE 20:06:03 10° N
Cosmos 968 Rocket 4.1 20:01:08 30° SE 20:02:40 37° ESE 20:07:24 10° NE
Cosmos 2237 4.2 19:57:14 10° NNW 20:03:00 78° ENE 20:05:58 30° SSE
SL-08 ROCKET BODY 4.4 19:58:42 16° S 20:03:43 89° E 20:09:50 10° N
Okean 3 4.4 20:03:17 28° ESE 20:03:47 29° E 20:07:22 10° NNE
Tiangong -2.0 20:02:12 10° W 20:05:17 53° SSW 20:05:18 53° SSW
Cosmos 1733 Rocket 3.7 20:01:51 10° N 20:06:00 39° ENE 20:07:15 32° ESE
Cosmos 2228 Rocket 3.2 20:07:19 34° SSE 20:09:07 63° E 20:13:38 10° NNE
Cosmos 2219 Rocket 3.9 20:06:30 10° N 20:10:49 22° NE 20:14:05 14° E
Cosmos 883 Rocket 4.5 20:06:00 10° N 20:12:21 76° E 20:15:48 29° SSE
SeaSat 1 3.4 20:12:15 22° SSW 20:14:56 39° WSW 20:19:32 10° NW
Cosmos 1315 Rocket 4.3 20:15:49 21° E 20:15:49 21° E 20:18:36 10° NE
Meteor 2-10 Rocket 3.6 20:11:23 10° N 20:17:01 81° E 20:19:27 34° SSE
ATLAS CENTAUR R/B 1.0 20:17:21 53° E 20:17:21 53° E 20:20:35 10° NE
Meteor 1-15 Rocket 4.3 20:12:45 10° NNW 20:18:18 74° W 20:21:17 29° S
Meteor 1-23 Rocket 4.3 20:16:40 20° SSW 20:20:41 78° W 20:26:26 10° N
USA 234 4.5 20:15:01 10° NE 20:21:07 43° NNW 20:27:12 10° W
Cosmos 1953 3.9 20:22:44 10° NNE 20:25:37 20° ENE 20:25:44 20° ENE
Okean 1-7 3.8 20:28:24 34° E 20:28:36 34° E 20:32:31 10° NNE
MOS 1 Rocket 4.3 20:26:39 23° SSW 20:29:44 47° W 20:34:55 10° NNW
Cosmos 1455 4.0 20:27:45 10° NNE 20:29:57 18° ENE 20:29:57 18° ENE
Cosmos 2315 Rocket 4.0 20:24:45 10° N 20:31:09 85° W 20:34:21 32° S
CZ-2C R/B 4.1 20:29:07 10° NNE 20:33:16 39° E 20:33:28 39° ESE
Cosmos 2360 Rocket 2.4 20:28:39 10° NNW 20:34:16 59° ENE 20:36:22 37° SE
Cosmos 841 Rocket 3.7 20:33:39 10° NNW 20:38:51 62° WSW 20:40:43 38° S
Cosmos 2333 Rocket 2.5 20:33:22 10° NNW 20:39:03 59° ENE 20:41:09 37° SE
SL-16 R/B 2.5 20:36:16 10° NNW 20:41:50 59° WSW 20:43:56 37° S
Atlas Centaur 2 3.5 20:34:32 10° WSW 20:42:00 37° S 20:43:36 34° SSE
SL-14 R/B 4.1 20:42:15 32° SW 20:43:29 43° WNW 20:47:07 10° N
RESURS DK-1 2.2 20:41:06 10° NNW 20:45:11 78° WSW 20:45:34 69° SSW
Cosmos 1833 4.1 20:48:14 34° SSW 20:50:47 86° ESE 20:56:26 10° NNE
Aureole 3 3.2 20:50:55 66° SW 20:51:17 73° W 20:55:37 10° N
Cosmos 1300 3.4 20:49:18 10° NNW 20:52:39 40° W 20:52:53 39° WSW
Cosmos 1703 Rocket 4.0 20:55:40 45° E 20:55:41 45° E 20:59:57 10° NNE
Cosmos 1932 4.4 20:54:12 35° SSW 20:57:01 72° ESE 21:03:17 10° NE
Cosmos 1862 Rocket 4.1 20:55:44 37° SW 20:57:06 52° W 21:01:25 10° N
Cosmos 1346 Rocket 3.4 20:57:38 10° NNW 21:01:20 44° W 21:01:35 44° WSW
Meteor 1-16 Rocket 4.3 20:57:57 10° N 21:03:54 88° W 21:05:41 48° S
ATLAS 2AS CENTAUR R/B 2.6 20:58:35 10° NNW 21:05:25 79° NE 21:07:51 42° SE
Meteor 1-4 Rocket 3.7 21:09:49 35° NNW 21:09:49 35° NNW 21:11:54 10° N
Cosmos 2333 4.2 21:05:41 10° NNW 21:11:29 83° ENE 21:12:55 53° SSE
ARIANE 5 R/B 2.4 21:17:31 82° SSW 21:17:39 85° WSW 21:22:00 10° NNW
Cosmos 1745 Rocket 4.1 21:20:33 49° SE 21:22:02 62° E 21:28:18 10° NNE
Cosmos 1241 Rocket 4.5 21:19:44 30° SW 21:22:57 77° WNW 21:29:12 10° NNE
Okean 2 3.8 21:24:44 51° W 21:24:49 51° W 21:28:45 10° N
COSMOS 2455 3.6 21:25:53 34° ESE 21:25:53 34° ESE 21:31:05 10° NE
Cosmos 2322 Rocket 2.9 21:21:03 10° NW 21:26:19 40° WSW 21:27:28 36° SW
PSLV R/B 4.0 21:22:58 10° N 21:26:52 68° WNW 21:26:52 68° WNW
SJ 16-02 2.4 21:28:54 32° WSW 21:30:02 38° WNW 21:34:06 10° N
Cosmos 2297 Rocket 3.6 21:31:24 22° E 21:31:24 22° E 21:35:14 10° NE
USA 281 3.3 21:32:45 48° S 21:34:36 68° WSW 21:41:10 10° NNW
Nadezhda 1 Rocket 3.9 21:29:18 10° N 21:35:38 77° E 21:37:05 55° SSE
Cosmos 1386 Rocket 4.5 21:39:28 50° SSW 21:41:14 81° W 21:47:31 10° N
GP-B 3.6 21:40:18 10° N 21:44:34 50° W 21:44:46 49° W
COSMOS 2428 3.2 21:39:17 10° NNW 21:44:51 53° ENE 21:46:15 43° ESE
Cosmos 1408 4.5 21:50:12 22° NNE 21:50:12 22° NNE 21:51:25 10° NNE
GEOS 3 Rocket 4.2 21:46:12 10° NE 21:50:25 41° E 21:50:25 41° E
Cosmos 1908 Rocket 4.4 21:50:59 10° NNW 21:54:53 39° W 21:54:53 39° W
ATLAS CENTAUR R/B 4.0 21:53:19 10° WNW 21:55:06 13° NW 21:56:55 10° NNW
Cosmos 2219 Rocket 2.3 21:49:36 10° NNW 21:55:12 61° WSW 21:55:47 57° SW
Cosmos 1782 Rocket 3.7 21:53:13 10° N 21:57:10 69° NW 21:57:10 69° NW
Spot 2 4.3 21:57:38 78° SE 21:57:59 86° ENE 22:03:05 10° NNW
Cosmos 2208 Rocket 4.0 21:53:26 10° NNW 21:58:38 69° ENE 21:59:07 65° ESE
H-2A R/B 3.1 21:59:30 50° W 21:59:30 50° W 22:03:18 10° NNW
Cosmos 371 Rocket 3.6 22:00:27 52° E 22:00:27 52° E 22:04:43 10° NNE
Cosmos 1953 4.0 21:58:13 10° NW 22:00:51 24° WNW 22:00:51 24° WNW
Cosmos 158 Rocket 4.0 21:56:34 10° NNW 22:01:53 69° ENE 22:02:24 64° ESE
Spot 4 4.0 22:03:34 60° W 22:03:34 60° W 22:08:19 10° NNW
Cosmos 1455 4.1 22:01:46 10° NW 22:03:41 21° WNW 22:03:41 21° WNW
CZ-4C R/B 2.1 22:11:44 54° E 22:11:44 54° E 22:16:12 10° NE
ALOS 2 2.8 22:11:53 64° WNW 22:11:53 64° WNW 22:15:52 10° NNW
Cosmos 1503 Rocket 4.3 22:11:39 54° ESE 22:11:39 54° ESE 22:16:50 10° NNE
CENTAUR R/B 3.9 22:13:10 20° E 22:13:10 20° E 22:17:10 10° ENE
Cosmos 1777 Rocket 4.4 22:16:03 48° E 22:16:03 48° E 22:21:02 10° NNE
Cosmos 2360 Rocket 3.9 22:13:49 10° NW 22:17:43 19° W 22:18:06 19° WSW
Cosmos 1300 Rocket 4.2 22:15:41 10° NNW 22:19:20 47° WNW 22:19:20 47° WNW
Okean 2 Rocket 4.2 22:16:03 10° N 22:20:07 33° ENE 22:20:12 33° E
Cosmos 1709 Rocket 4.1 22:20:20 51° SW 22:21:52 68° W 22:28:14 10° N
Cosmos 1066 4.4 22:21:42 74° SSE 22:22:11 84° E 22:27:42 10° N
Cosmos 2333 Rocket 3.9 22:18:47 10° NW 22:22:48 20° W 22:23:08 20° WSW
H-2A R/B 2.4 22:19:54 10° NNE 22:23:29 56° NE 22:23:29 56° NE
Cosmos 2221 Rocket 4.3 22:31:49 45° ENE 22:31:49 45° ENE 22:35:42 10° NNE
Cosmos 2184 Rocket 4.5 22:30:27 42° SE 22:31:46 48° E 22:37:51 10° NNE
Cosmos 1674 Rocket 4.1 22:34:20 51° ENE 22:34:20 51° ENE 22:38:06 10° NNE
Cosmos 1378 Rocket 3.8 22:37:10 63° NE 22:37:10 63° NE 22:41:01 10° NNE
Cosmos 2098 Rocket 4.0 22:30:55 10° N 22:37:34 89° WSW 22:38:55 60° S
Cosmos 1486 Rocket 4.4 22:38:07 49° W 22:38:52 53° WNW 22:43:58 10° N
Sich 1 Rocket 4.0 22:36:12 10° N 22:40:19 54° ENE 22:40:19 54° ENE
Meteor 1-24 Rocket 3.8 22:39:51 59° SW 22:40:48 69° W 22:46:32 10° N
SL-16 R/B 4.4 22:37:32 10° N 22:41:43 21° NE 22:45:53 10° E
NOSS 0 Rocket 3.8 22:35:57 10° NNW 22:42:13 83° WSW 22:43:21 62° S
Cosmos 2154 Rocket 4.4 22:46:40 44° SE 22:48:02 52° E 22:54:05 10° NNE
Cosmos 2084 Rocket 4.2 22:50:08 45° ENE 22:50:08 45° ENE 22:53:14 10° NE
Cosmos 2322 4.4 22:44:25 10° NW 22:49:30 37° WSW 22:49:30 37° WSW
Cosmos 1025 Rocket 4.3 22:49:51 31° E 22:49:51 31° E 22:53:30 10° NNE
BlueWalker 3 3.3 22:50:03 34° NW 22:50:16 34° NNW 22:53:44 10° NE
Cosmos 1825 3.5 22:51:34 34° NNE 22:51:34 34° NNE 22:53:42 10° NNE
Cosmos 2237 Rocket 2.3 22:45:29 10° NNW 22:51:09 71° ENE 22:52:21 54° SE
Cosmos 1354 Rocket 3.8 22:51:12 77° SSW 22:51:36 89° W 22:56:57 10° NNE
Cosmos 332 Rocket 3.9 22:52:48 64° E 22:52:48 64° E 22:57:32 10° NNE
Cosmos 2227 Rocket 2.3 22:53:35 56° SE 22:54:03 58° ESE 22:59:38 10° NNE
ATLAS 2AS CENTAUR R/B 4.2 22:51:04 10° WNW 22:55:16 19° WSW 22:55:16 19° WSW
Cosmos 304 Rocket 4.2 22:55:49 49° W 22:56:07 50° WNW 23:00:46 10° N
Cosmos 405 Rocket 3.7 22:53:19 10° NNW 22:55:58 42° NNW 22:55:58 42° NNW
Cosmos 1980 3.6 22:58:08 10° NNW 23:03:49 86° WSW 23:04:39 67° SSE
Meteor 2-5 Rocket 4.5 23:03:32 38° WSW 23:04:51 44° WNW 23:10:28 10° N
COSMOS 2455 3.8 23:08:59 28° WSW 23:11:32 41° NW 23:17:13 10° NNE
Cosmos 2219 3.7 23:12:45 43° SE 23:13:27 45° ESE 23:18:47 10° NE
Cosmos 2297 Rocket 2.7 23:13:10 41° WSW 23:14:35 50° WNW 23:20:05 10° NNE
Cosmos 2181 Rocket 4.3 23:15:14 10° NNW 23:21:09 49° W 23:22:13 44° WSW
CZ-2D R/B 4.0 23:19:37 10° NE 23:23:15 18° E 23:25:13 15° ESE
Cosmos 1610 Rocket 4.5 23:24:39 51° S 23:26:24 82° E 23:32:48 10° N
Okean 1 Rocket 3.1 23:22:34 10° NNW 23:26:38 69° WNW 23:26:38 69° WNW
COSMOS 2428 4.2 23:24:25 10° NW 23:28:13 22° W 23:28:13 22° W
SL-4 R/B 2.7 23:26:23 10° NW 23:30:31 55° NNE 23:34:12 14° ESE
IDEFIX/ARIANE 42P 3.8 23:26:44 10° NE 23:31:19 30° E 23:32:47 26° SE
Cosmos 2074 Rocket 4.3 23:33:38 43° WSW 23:35:11 52° WNW 23:41:14 10° N
Cosmos 1892 4.4 23:38:13 22° NW 23:38:13 22° NW 23:40:20 10° NNW
Aureole 1 Rocket 3.3 23:40:08 48° ENE 23:40:08 48° ENE 23:43:21 10° NNE
Cosmos 990 Rocket 4.1 23:48:51 52° WSW 23:49:48 63° WNW 23:54:55 10° NNE
Cosmos 1975 Rocket 2.9 23:49:29 70° SE 23:49:50 75° E 23:54:12 10° N
MOZ.5/SAFIR/RUBIN 5/SL-8 4.0 23:49:47 43° SE 23:51:08 64° ENE 23:55:44 10° N
Cosmos 2263 Rocket 2.3 23:50:27 49° SSE 23:51:49 66° ESE 23:57:21 10° NNE
Cosmos 1461 4.1 23:54:22 29° ESE 23:54:22 29° ESE 23:57:38 10° NE
Helios 1A Rocket 2.9 23:56:30 62° WNW 23:56:30 62° WNW 23:59:53 10° NNW
